Weather History for Sioux City, IA

Change the Weather History Date:

Saturday, November 2, 2013

  Actual Average Record
Temperature  
Mean Temperature 46 °F 43 °F  
Max Temperature 60 °F 55 °F 80 °F (2005)
Min Temperature 32 °F 32 °F 7 °F (1951)
Degree Days  
Heating Degree Days 19 22  
Month to date heating degree days 33 43  
Since 1 July heating degree days 558 643  
Cooling Degree Days 0 0  
Month to date cooling degree days 0 0  
Year to date cooling degree days 960 869  
Moisture  
Dew Point 33 °F    
Average Humidity 63    
Maximum Humidity 96    
Minimum Humidity 29    
Precipitation  
Precipitation 0.00 in 0.05 in 0.54 in (1901)
Month to date precipitation 0.04 0.10  
Year to date precipitation 25.50 25.73  
Snow  
Snow 0.00 in 0.10 in 0.80 in (1928)
Month to date snowfall 0.0 0.2  
Since 1 July snowfall T 1.2  
Since 1 September snowfall T 1.2  
Snow Depth 0.00 in    
Sea Level Pressure  
Sea Level Pressure 30.11 in    
Wind  
Wind Speed 6 mph (NW)    
Max Wind Speed 24 mph    
Max Gust Speed 25 mph    
Visibility 10 miles    
Events      
T = Trace of Precipitation, MM = Missing Value Source: NWS Daily Summary

Daily Weather History Graph

Daily Weather History Graph

Search for Another Location

Airport:

Trip Planner

Search our weather history database for the weather conditions in past years. The results will help you decide how hot, cold, wet, or windy it might be!

Date:

Astronomy

Nov. 02, 2013 Rise Set
Actual Time 8:00 AM CDT 6:17 PM CDT
Civil Twilight 7:31 AM CDT 6:46 PM CDT
Nautical Twilight 6:57 AM CDT 7:19 PM CDT
Astronomical Twilight 6:25 AM CDT 7:52 PM CDT
Moon 6:58 AM CDT (11/2) 5:49 PM CDT (11/2)
Length of Visible Light 11h 15m
Length of Day
10h 16m
Waning Crescent, 1% of the Moon is Illuminated
Nov 2
Waning Crescent
Nov 3
New
Nov 9
First Quarter
Nov 17
Full
Nov 25
Last Quarter

Hourly Weather History & Observations

Time (CDT) Temp. Windchill Dew Point Humidity Pressure Visibility Wind Dir Wind Speed Gust Speed Precip Events Conditions
12:52 AM 44.1 °F 37.4 °F 37.9 °F 79% 30.00 in 10.0 mi NW 13.8 mph 25.3 mph N/A   Overcast
1:52 AM 42.1 °F 35.2 °F 37.0 °F 82% 30.03 in 10.0 mi NNW 12.7 mph - N/A   Partly Cloudy
2:52 AM 41.0 °F 33.5 °F 36.0 °F 82% 30.05 in 10.0 mi NW 13.8 mph - N/A   Mostly Cloudy
3:52 AM 39.0 °F 32.3 °F 35.1 °F 86% 30.06 in 10.0 mi NNW 10.4 mph - N/A   Clear
4:52 AM 37.0 °F 32.4 °F 34.0 °F 89% 30.09 in 10.0 mi WNW 5.8 mph - N/A   Clear
5:52 AM 34.0 °F 28.8 °F 32.0 °F 92% 30.13 in 10.0 mi NW 5.8 mph - N/A   Clear
6:52 AM 33.1 °F 26.9 °F 30.9 °F 92% 30.14 in 10.0 mi WNW 6.9 mph - N/A   Clear
7:52 AM 33.1 °F 26.9 °F 30.0 °F 89% 30.16 in 10.0 mi WNW 6.9 mph - N/A   Clear
8:52 AM 34.0 °F 28.8 °F 32.0 °F 92% 30.17 in 10.0 mi WNW 5.8 mph - N/A   Clear
9:52 AM 39.0 °F 34.0 °F 34.0 °F 82% 30.18 in 10.0 mi WNW 6.9 mph - N/A   Clear
10:52 AM 44.1 °F 39.5 °F 36.0 °F 73% 30.18 in 10.0 mi WNW 8.1 mph - N/A   Clear
11:52 AM 48.0 °F - 36.0 °F 63% 30.18 in 10.0 mi NW 8.1 mph - N/A   Clear
12:52 PM 52.0 °F - 36.0 °F 54% 30.17 in 10.0 mi Calm Calm - N/A   Clear
1:52 PM 55.9 °F - 35.1 °F 45% 30.14 in 10.0 mi Calm Calm - N/A   Clear
2:52 PM 57.9 °F - 30.9 °F 36% 30.11 in 10.0 mi WNW 8.1 mph - N/A   Clear
3:52 PM 60.1 °F - 28.9 °F 31% 30.09 in 10.0 mi NW 6.9 mph - N/A   Clear
4:52 PM 59.0 °F - 28.0 °F 31% 30.09 in 10.0 mi NW 8.1 mph - N/A   Clear
5:52 PM 57.0 °F - 28.9 °F 34% 30.09 in 10.0 mi Calm Calm - N/A   Clear
6:52 PM 48.0 °F - 30.0 °F 50% 30.09 in 10.0 mi Calm Calm - N/A   Clear
7:52 PM 45.0 °F - 30.9 °F 58% 30.10 in 10.0 mi Calm Calm - N/A   Clear
8:52 PM 39.0 °F 34.8 °F 30.0 °F 70% 30.09 in 10.0 mi ESE 5.8 mph - N/A   Clear
9:52 PM 37.0 °F 30.4 °F 30.0 °F 76% 30.08 in 10.0 mi East 9.2 mph - N/A   Clear
10:52 PM 34.0 °F 27.2 °F 28.9 °F 82% 30.08 in 10.0 mi ESE 8.1 mph - N/A   Clear
11:52 PM 34.0 °F 27.2 °F 28.9 °F 82% 30.07 in 10.0 mi ESE 8.1 mph - N/A   Clear